Estación de Combarbala

Ultimos registro cada 15 minutos 32
Estación Fecha / Hora Temperatura Humedad Lluvia Velocidad Dirección Radiación Presion
32 Combarbala 10-05-2026 07:45 15,1 11,9 0 0 310 9,4 907,9
31 Combarbala 10-05-2026 07:30 14,9 12,4 0 0 310 5,6 907,8
30 Combarbala 10-05-2026 07:15 14,2 13 0 0 313 0,6 907,8
29 Combarbala 10-05-2026 07:00 14,2 13,1 0 0 313 0,6 907,8
28 Combarbala 10-05-2026 06:45 14 12,7 0 0 313 0,6 907,7
27 Combarbala 10-05-2026 06:30 14,2 12,9 0 0 313 0,6 907,7
26 Combarbala 10-05-2026 06:15 13,8 13,4 0 0 313 0,6 907,7
25 Combarbala 10-05-2026 06:00 13,8 12,8 0 0 313 0,6 907,8
24 Combarbala 10-05-2026 05:45 13,8 12,9 0 0 313 0,6 907,7
23 Combarbala 10-05-2026 05:30 14,4 12,7 0 0 313 0,6 907,6
22 Combarbala 10-05-2026 05:15 14 13 0 0 313 0,6 907,7
21 Combarbala 10-05-2026 05:00 13,8 13,8 0 0 313 0,6 907,6
20 Combarbala 10-05-2026 04:45 14 13,6 0 0 313 0,6 907,6
19 Combarbala 10-05-2026 04:30 13,9 14,2 0 0 313 0,6 907,6
18 Combarbala 10-05-2026 04:15 14 14,4 0 0 313 0,6 907,8
17 Combarbala 10-05-2026 04:00 14,2 14,5 0 0 313 0,6 907,7
16 Combarbala 10-05-2026 03:45 14 15,1 0 0 313 0,6 907,7
15 Combarbala 10-05-2026 03:30 13,3 15,8 0 0 313 0,6 907,8
14 Combarbala 10-05-2026 03:15 13,1 16 0 0 313 0,6 907,9
13 Combarbala 10-05-2026 03:00 12,4 16,4 0 0 313 0,6 907,9
12 Combarbala 10-05-2026 02:45 12,5 17,7 0 0 313 0,6 908
11 Combarbala 10-05-2026 02:30 13,2 18,1 0 0 313 0,6 908,1
10 Combarbala 10-05-2026 02:15 13,1 17,3 0 0 313 0,6 908,1
9 Combarbala 10-05-2026 02:00 13,1 18,1 0 0 313 0,6 908,2
8 Combarbala 10-05-2026 01:45 13,5 16,4 0 0 313 0,6 908,3
7 Combarbala 10-05-2026 01:30 13,6 17,2 0 0 313 0,6 908,1
6 Combarbala 10-05-2026 01:15 13 18,7 0 0 313 0,6 908,2
5 Combarbala 10-05-2026 01:00 12,9 20,9 0 0 313 0,6 908,3
4 Combarbala 10-05-2026 00:45 13,9 20,3 0 0 313 0,6 908,1
3 Combarbala 10-05-2026 00:30 14,2 21,1 0 0 313 0,6 908,1
2 Combarbala 10-05-2026 00:15 13,8 24,2 0 0 313 0,6 908,1
1 Combarbala 10-05-2026 00:00 12,8 25,3 0 0 313 0,6 908,3